User: anonymous   Login
Location: Mohawk View
(42.7837°N, 73.7885°W)
Time: 18:40:46
(UTC+00:00)
Language:

SPOT 5 - Orbit

View from above orbital plane
View from above orbital plane
View from above satellite
View from above satellite

Ground track
Ground track

The orbit data is extracted from the following two-line orbital elements,

1 27421U 02021A   21263.16040245  .00000055  00000-0  23573-4 0  9991
2 27421  98.2216 331.9562 0134041 231.1869 127.7306 14.52119705 11472
Epoch (UTC): 20 September 2021 03:50:58
Eccentricity: 0.0134041
inclination: 98.2216°
perigee height: 623 km
apogee height: 814 km
right ascension of ascending node: 331.9562°
argument of perigee: 231.1869°
revolutions per day: 14.52119705
mean anomaly at epoch: 127.7306°
orbit number at epoch: 1147

The dashed part of the orbit path shows where the satellite is in the earth's shadow,  

DLR